START_TIME,STEP,MOV.,M6,t_acc.,M7,t_acc.,M19,t_acc.,H36,t_acc.
1979-02-28 21:00:16.550 ,1,1,0.,12.0,0.,12.0,0.,12.0,0.,12.0
1979-02-28 21:00:28.550 ,1,1,0.,12.0,0.,12.0,0.,12.0,0.,12.0
1979-02-28 21:00:40.550 ,2,1,0.,12.0,0.,12.0,0.,12.0,0.,12.0
1979-02-28 21:00:52.550 ,2,1,0.,12.0,0.,12.0,0.,12.0,0.,12.0
1979-02-28 21:01:04.550 ,3,1,0.,12.0,0.,12.0,0.,12.0,0.,12.0
1979-02-28 21:01:16.550 ,3,1,0.,12.0,0.,12.0,0.,12.0,0.,12.0
1979-02-28 21:01:28.550 ,4,1,0.,12.0,0.,12.0,0.,12.0,0.,12.0
1979-02-28 21:01:40.550 ,4,1,0.,12.0,0.,12.0,0.,12.0,0.,12.0
1979-02-28 21:01:52.540 ,5,1,0.,12.0,0.,12.0,0.,12.0,0.,12.0
1979-02-28 21:02:04.550 ,5,1,0.,12.0,0.,12.0,0.,12.0,0.,12.0
1979-02-28 21:02:16.550 ,6,1,0.,12.0,0.,12.0,0.,12.0,0.,12.0
1979-02-28 21:02:28.550 ,6,1,0.,12.0,0.,12.0,0.,12.0,0.,12.0
1979-02-28 21:02:40.550 ,7,1,0.,12.0,0.,12.0,0.,12.0,0.,12.0
1979-02-28 21:02:52.550 ,7,1,0.,12.0,0.,12.0,0.,12.0,0.,12.0
1979-02-28 21:03:04.550 ,7,1,0.,12.0,0.,12.0,0.,12.0,0.,12.0
1979-02-28 21:03:16.550 ,7,1,0.,12.0,0.,12.0,0.,12.0,0.,12.0
1979-02-28 21:03:28.550 ,6,1,0.,12.0,0.,12.0,0.,12.0,0.,12.0
1979-02-28 21:03:40.550 ,6,1,0.,12.0,0.,12.0,0.,12.0,0.,12.0
1979-02-28 21:03:52.550 ,5,1,0.,12.0,0.,12.0,0.,12.0,0.,12.0
1979-02-28 21:04:04.550 ,5,1,0.,12.0,0.,12.0,0.,12.0,0.,12.0
1979-02-28 21:04:16.550 ,4,1,0.,12.0,0.,12.0,0.,12.0,0.,12.0
1979-02-28 21:04:28.550 ,4,1,0.,12.0,0.,12.0,0.,12.0,0.,12.0
1979-02-28 21:04:40.550 ,3,1,0.,12.0,0.,12.0,0.,12.0,0.,12.0
1979-02-28 21:04:52.550 ,3,1,0.,12.0,0.,12.0,0.,12.0,0.,12.0
1979-02-28 21:05:04.550 ,2,1,0.,12.0,0.,12.0,0.,12.0,0.,12.0
1979-02-28 21:05:16.550 ,2,1,0.,12.0,0.,12.0,0.,12.0,0.,12.0
1979-02-28 21:05:28.550 ,1,1,0.,12.0,0.,12.0,0.,12.0,0.,12.0
1979-02-28 21:05:40.550 ,1,1,0.,12.0,0.,12.0,0.,12.0,0.,12.0
1979-02-28 21:05:52.550 ,0,1,0.,12.0,0.,12.0,0.,12.0,0.,12.0
1979-02-28 21:06:04.550 ,0,1,0.,12.0,0.,12.0,0.,12.0,0.,12.0
1979-02-28 21:06:16.550 ,0,1,0.,12.0,0.,12.0,0.,12.0,0.,12.0
1979-02-28 21:06:28.550 ,0,1,0.,12.0,0.,12.0,0.,12.0,0.,12.0
1979-02-28 21:06:40.550 ,1,1,0.,12.0,0.,12.0,0.,12.0,0.,12.0
1979-02-28 21:06:52.550 ,1,1,0.,12.0,0.,12.0,0.,12.0,0.,12.0
1979-02-28 21:07:04.550 ,2,1,0.,12.0,0.,12.0,0.,12.0,0.,12.0
1979-02-28 21:07:16.550 ,2,1,0.,12.0,0.,12.0,0.,12.0,0.,12.0
1979-02-28 21:07:28.550 ,3,1,0.,12.0,0.,12.0,0.,12.0,0.,12.0
1979-02-28 21:07:40.550 ,3,1,0.,12.0,0.,12.0,0.,12.0,0.,12.0
1979-02-28 21:07:52.550 ,4,1,0.,12.0,0.,12.0,0.,12.0,0.,12.0
1979-02-28 21:08:04.550 ,4,1,0.,12.0,0.,12.0,0.,12.0,0.,12.0
1979-02-28 21:08:16.550 ,5,1,0.,12.0,0.,12.0,0.,12.0,0.,12.0
1979-02-28 21:08:28.550 ,5,1,0.,12.0,0.,12.0,0.,12.0,0.,12.0
1979-02-28 21:08:40.540 ,6,1,0.,12.0,0.,12.0,0.,12.0,0.,12.0
1979-02-28 21:08:52.550 ,6,1,0.,12.0,0.,12.0,0.,12.0,0.,12.0
1979-02-28 21:09:04.550 ,7,1,0.,12.0,0.,12.0,0.,12.0,0.,12.0
1979-02-28 21:09:16.550 ,7,1,0.,12.0,0.,12.0,0.,12.0,0.,12.0
1979-02-28 21:09:28.540 ,7,1,0.,12.0,0.,12.0,0.,12.0,0.,12.0
1979-02-28 21:09:40.550 ,7,1,0.,12.0,0.,12.0,0.,12.0,0.,12.0
1979-02-28 21:09:52.540 ,6,1,0.,12.0,0.,12.0,0.,12.0,0.,12.0
1979-02-28 21:10:04.550 ,6,1,0.,12.0,0.,12.0,0.,12.0,0.,12.0
1979-02-28 21:10:16.540 ,5,1,0.,12.0,0.,12.0,0.,12.0,0.,12.0
1979-02-28 21:10:28.550 ,5,1,0.,12.0,0.,12.0,0.,12.0,0.,12.0
1979-02-28 21:10:40.540 ,4,1,0.,12.0,0.,12.0,0.,12.0,0.,12.0
1979-02-28 21:10:52.550 ,4,1,0.,12.0,0.,12.0,0.,12.0,0.,12.0
1979-02-28 21:11:04.550 ,3,1,0.,12.0,0.,12.0,0.,12.0,0.,12.0
1979-02-28 21:11:16.550 ,3,1,0.,12.0,0.,12.0,0.,12.0,0.,12.0
1979-02-28 21:11:28.540 ,2,1,0.,12.0,0.,12.0,0.,12.0,0.,12.0
1979-02-28 21:11:40.550 ,2,1,0.,12.0,0.,12.0,0.,12.0,0.,12.0
1979-02-28 21:11:52.540 ,1,1,0.,12.0,0.,12.0,0.,12.0,0.,12.0
1979-02-28 21:12:04.550 ,1,1,0.,12.0,0.,12.0,0.,12.0,0.,12.0
1979-02-28 21:12:16.540 ,0,1,0.,12.0,0.,12.0,0.,12.0,0.,12.0
1979-02-28 21:12:28.550 ,0,1,0.,12.0,0.,12.0,0.,12.0,0.,12.0
1979-02-28 21:12:40.540 ,0,1,0.,12.0,0.,12.0,0.,12.0,0.,12.0
1979-02-28 21:12:52.550 ,0,1,0.,12.0,0.,12.0,0.,12.0,0.,12.0
1979-02-28 21:13:04.550 ,1,1,0.,12.0,0.,12.0,0.,12.0,0.,12.0
1979-02-28 21:13:16.550 ,1,1,0.,12.0,0.,12.0,0.,12.0,0.,12.0
1979-02-28 21:13:28.540 ,2,1,0.,12.0,0.,12.0,0.,12.0,0.,12.0
1979-02-28 21:13:40.550 ,2,1,0.,12.0,0.,12.0,0.,12.0,0.,12.0
1979-02-28 21:13:52.540 ,3,1,0.,12.0,0.,12.0,0.,12.0,0.,12.0
1979-02-28 21:14:04.550 ,3,1,0.,12.0,0.,12.0,0.,12.0,0.,12.0
1979-02-28 21:14:16.540 ,4,1,0.,12.0,0.,12.0,0.,12.0,0.,12.0
1979-02-28 21:14:28.550 ,4,1,0.,12.0,0.,12.0,0.,12.0,0.,12.0
1979-02-28 21:14:40.540 ,5,1,0.,12.0,0.,12.0,0.,12.0,0.,12.0
1979-02-28 21:14:52.550 ,5,1,0.,12.0,0.,12.0,0.,12.0,0.,12.0
1979-02-28 21:15:04.550 ,6,1,0.,12.0,0.,12.0,0.,12.0,0.,12.0
1979-02-28 21:15:16.550 ,6,1,0.,12.0,0.,12.0,0.,12.0,0.,12.0
1979-02-28 21:15:28.540 ,7,1,0.,12.0,0.,12.0,0.,12.0,0.,12.0
1979-02-28 21:15:40.550 ,7,1,0.,12.0,0.,12.0,0.,12.0,0.,12.0
1979-02-28 21:15:52.540 ,7,1,0.,12.0,0.,12.0,0.,12.0,0.,12.0
1979-02-28 21:16:04.550 ,7,1,0.,12.0,0.,12.0,0.,12.0,0.,12.0
1979-02-28 21:16:16.540 ,6,1,0.,12.0,0.,12.0,0.,12.0,0.,12.0
1979-02-28 21:16:28.550 ,6,1,0.,12.0,0.,12.0,0.,12.0,0.,12.0
1979-02-28 21:16:40.540 ,5,1,0.,12.0,0.,12.0,0.,12.0,0.,12.0
1979-02-28 21:16:52.550 ,5,1,0.,12.0,0.,12.0,0.,12.0,0.,12.0
1979-02-28 21:17:04.550 ,4,1,0.,12.0,0.,12.0,0.,12.0,0.,12.0
1979-02-28 21:17:16.550 ,4,1,0.,12.0,0.,12.0,0.,12.0,0.,12.0
1979-02-28 21:17:28.540 ,3,1,0.,12.0,0.,12.0,0.,12.0,0.,12.0
1979-02-28 21:17:40.540 ,3,1,0.,12.0,0.,12.0,0.,12.0,0.,12.0
1979-02-28 21:17:52.540 ,2,1,0.,12.0,0.,12.0,0.,12.0,0.,12.0
1979-02-28 21:18:04.540 ,2,1,0.,12.0,0.,12.0,0.,12.0,0.,12.0
1979-02-28 21:18:16.540 ,1,1,0.,12.0,0.,12.0,0.,12.0,0.,12.0
1979-02-28 21:18:28.540 ,1,1,0.,12.0,0.,12.0,0.,12.0,0.,12.0
1979-02-28 21:18:40.540 ,0,1,0.,12.0,0.,12.0,0.,12.0,0.,12.0
1979-02-28 21:18:52.540 ,0,1,0.,12.0,0.,12.0,0.,12.0,0.,12.0
1979-02-28 21:19:04.540 ,0,1,0.,12.0,0.,12.0,0.,12.0,0.,12.0
1979-02-28 21:19:16.540 ,0,1,0.,12.0,0.,12.0,0.,12.0,0.,12.0
1979-02-28 21:19:28.540 ,1,1,0.,12.0,0.,12.0,0.,12.0,0.,12.0
1979-02-28 21:19:40.540 ,1,1,0.,12.0,0.,12.0,0.,12.0,0.,12.0
1979-02-28 21:19:52.540 ,2,1,1.,12.0,0.,12.0,0.,12.0,0.,12.0
1979-02-28 21:20:04.540 ,2,1,0.,12.0,0.,12.0,0.,12.0,0.,12.0
1979-02-28 21:20:16.540 ,3,1,0.,12.0,0.,12.0,0.,12.0,0.,12.0
1979-02-28 21:20:28.540 ,3,1,0.,12.0,0.,12.0,0.,12.0,0.,12.0
1979-02-28 21:20:40.540 ,4,1,0.,12.0,0.,12.0,0.,12.0,0.,12.0
1979-02-28 21:20:52.540 ,4,1,0.,12.0,0.,12.0,0.,12.0,0.,12.0
1979-02-28 21:21:04.540 ,5,1,0.,12.0,0.,12.0,0.,12.0,0.,12.0
1979-02-28 21:21:16.540 ,5,1,0.,12.0,0.,12.0,0.,12.0,0.,12.0
1979-02-28 21:21:28.540 ,6,1,0.,12.0,0.,12.0,0.,12.0,0.,12.0
1979-02-28 21:21:40.540 ,6,1,0.,12.0,0.,12.0,0.,12.0,0.,12.0
1979-02-28 21:21:52.540 ,7,1,0.,12.0,0.,12.0,0.,12.0,0.,12.0
1979-02-28 21:22:04.540 ,7,1,0.,12.0,0.,12.0,0.,12.0,0.,12.0
1979-02-28 21:22:16.540 ,7,1,0.,12.0,0.,12.0,0.,12.0,0.,12.0
1979-02-28 21:22:28.540 ,7,1,0.,12.0,0.,12.0,0.,12.0,0.,12.0
1979-02-28 21:22:40.540 ,6,1,0.,12.0,0.,12.0,0.,12.0,0.,12.0
1979-02-28 21:22:52.540 ,6,1,0.,12.0,0.,12.0,0.,12.0,0.,12.0
1979-02-28 21:23:04.540 ,5,1,0.,12.0,0.,12.0,0.,12.0,0.,12.0
1979-02-28 21:23:16.540 ,5,1,0.,12.0,0.,12.0,0.,12.0,0.,12.0
1979-02-28 21:23:28.540 ,4,1,0.,12.0,0.,12.0,0.,12.0,0.,12.0
1979-02-28 21:23:40.540 ,4,1,0.,12.0,0.,12.0,0.,12.0,0.,12.0
1979-02-28 21:23:52.540 ,3,1,0.,12.0,0.,12.0,0.,12.0,0.,12.0
1979-02-28 21:24:04.540 ,3,1,0.,12.0,0.,12.0,0.,12.0,0.,12.0
1979-02-28 21:24:16.540 ,2,1,0.,12.0,0.,12.0,0.,12.0,0.,12.0
1979-02-28 21:24:28.540 ,2,1,0.,12.0,0.,12.0,0.,12.0,0.,12.0
1979-02-28 21:24:40.540 ,1,1,0.,12.0,0.,12.0,0.,12.0,0.,12.0
1979-02-28 21:24:52.540 ,1,1,0.,12.0,0.,12.0,0.,12.0,0.,12.0
1979-02-28 21:25:04.540 ,0,1,0.,12.0,0.,12.0,0.,12.0,0.,12.0
1979-02-28 21:25:16.540 ,0,1,0.,12.0,0.,12.0,0.,12.0,0.,12.0
1979-02-28 21:25:28.540 ,0,1,0.,12.0,0.,12.0,0.,12.0,0.,12.0
1979-02-28 21:25:40.540 ,0,1,0.,12.0,0.,12.0,0.,12.0,0.,12.0
1979-02-28 21:25:52.540 ,1,1,0.,12.0,0.,12.0,0.,12.0,0.,12.0
1979-02-28 21:26:04.540 ,1,1,0.,12.0,0.,12.0,0.,12.0,0.,12.0
1979-02-28 21:26:16.540 ,2,1,0.,12.0,0.,12.0,0.,12.0,0.,12.0
1979-02-28 21:26:28.540 ,2,1,0.,12.0,0.,12.0,0.,12.0,0.,12.0
1979-02-28 21:26:40.540 ,3,1,0.,12.0,0.,12.0,0.,12.0,0.,12.0
1979-02-28 21:26:52.540 ,3,1,0.,12.0,0.,12.0,0.,12.0,0.,12.0
1979-02-28 21:27:04.540 ,4,1,0.,12.0,0.,12.0,0.,12.0,0.,12.0
1979-02-28 21:27:16.540 ,4,1,0.,12.0,0.,12.0,0.,12.0,0.,12.0
1979-02-28 21:27:28.540 ,5,1,0.,12.0,0.,12.0,0.,12.0,0.,12.0
1979-02-28 21:27:40.540 ,5,1,0.,12.0,0.,12.0,0.,12.0,0.,12.0
1979-02-28 21:27:52.540 ,6,1,0.,12.0,0.,12.0,0.,12.0,0.,12.0
1979-02-28 21:28:04.540 ,6,1,0.,12.0,0.,12.0,0.,12.0,0.,12.0
1979-02-28 21:28:16.540 ,7,1,0.,12.0,0.,12.0,0.,12.0,0.,12.0
1979-02-28 21:28:28.540 ,7,1,0.,12.0,0.,12.0,0.,12.0,0.,12.0
1979-02-28 21:28:40.540 ,7,1,0.,12.0,0.,12.0,0.,12.0,0.,12.0
1979-02-28 21:28:52.540 ,7,1,0.,12.0,0.,12.0,0.,12.0,0.,12.0
1979-02-28 21:29:04.540 ,6,1,0.,12.0,0.,12.0,0.,12.0,0.,12.0
1979-02-28 21:29:16.540 ,6,1,0.,12.0,0.,12.0,0.,12.0,0.,12.0
1979-02-28 21:29:28.540 ,5,1,0.,12.0,0.,12.0,0.,12.0,0.,12.0
1979-02-28 21:29:40.540 ,5,1,0.,12.0,0.,12.0,0.,12.0,0.,12.0
1979-02-28 21:29:52.540 ,4,1,0.,12.0,0.,12.0,0.,12.0,0.,12.0
1979-02-28 21:30:04.540 ,4,1,0.,12.0,0.,12.0,0.,12.0,0.,12.0
1979-02-28 21:30:16.540 ,3,1,0.,12.0,0.,12.0,0.,12.0,0.,12.0
1979-02-28 21:30:28.540 ,3,1,0.,12.0,0.,12.0,0.,12.0,0.,12.0
1979-02-28 21:30:40.540 ,2,1,0.,12.0,0.,12.0,0.,12.0,0.,12.0
1979-02-28 21:30:52.540 ,2,1,0.,12.0,0.,12.0,0.,12.0,0.,12.0
1979-02-28 21:31:04.540 ,1,1,0.,12.0,0.,12.0,0.,12.0,0.,12.0
1979-02-28 21:31:16.540 ,1,1,0.,12.0,0.,12.0,0.,12.0,0.,12.0
1979-02-28 21:31:28.540 ,0,1,0.,12.0,0.,12.0,0.,12.0,0.,12.0
1979-02-28 21:31:40.540 ,0,1,0.,12.0,0.,12.0,0.,12.0,0.,12.0
1979-02-28 21:31:52.540 ,0,1,0.,12.0,0.,12.0,0.,12.0,0.,12.0
1979-02-28 21:32:04.540 ,0,1,0.,12.0,0.,12.0,0.,12.0,0.,12.0
1979-02-28 21:32:16.540 ,1,1,0.,12.0,0.,12.0,0.,12.0,0.,12.0
1979-02-28 21:32:28.540 ,1,1,0.,12.0,0.,12.0,0.,12.0,0.,12.0
1979-02-28 21:32:40.540 ,2,1,0.,12.0,0.,12.0,0.,12.0,0.,12.0
1979-02-28 21:32:52.540 ,2,1,0.,12.0,0.,12.0,0.,12.0,0.,12.0
1979-02-28 21:33:04.540 ,3,1,0.,12.0,0.,12.0,0.,12.0,0.,12.0
1979-02-28 21:33:16.540 ,3,1,0.,12.0,0.,12.0,0.,12.0,0.,12.0
1979-02-28 21:33:28.540 ,4,1,0.,12.0,0.,12.0,0.,12.0,0.,12.0
1979-02-28 21:33:40.540 ,4,1,0.,12.0,0.,12.0,0.,12.0,0.,12.0
1979-02-28 21:33:52.540 ,5,1,0.,12.0,0.,12.0,0.,12.0,0.,12.0
1979-02-28 21:34:04.540 ,5,1,0.,12.0,0.,12.0,0.,12.0,0.,12.0
1979-02-28 21:34:16.550 ,6,1,0.,12.0,0.,12.0,0.,12.0,0.,12.0
1979-02-28 21:34:28.550 ,6,1,0.,12.0,0.,12.0,0.,12.0,0.,12.0
1979-02-28 21:34:40.550 ,7,1,0.,12.0,0.,12.0,0.,12.0,0.,12.0
1979-02-28 21:34:52.550 ,7,1,0.,12.0,0.,12.0,0.,12.0,0.,12.0
1979-02-28 21:35:04.550 ,7,1,0.,12.0,0.,12.0,0.,12.0,0.,12.0
1979-02-28 21:35:16.550 ,7,1,0.,12.0,0.,12.0,0.,12.0,0.,12.0
1979-02-28 21:35:28.550 ,6,1,0.,12.0,0.,12.0,0.,12.0,0.,12.0
1979-02-28 21:35:40.550 ,6,1,0.,12.0,0.,12.0,0.,12.0,0.,12.0
1979-02-28 21:35:52.550 ,5,1,0.,12.0,0.,12.0,0.,12.0,0.,12.0
1979-02-28 21:36:04.550 ,5,1,0.,12.0,0.,12.0,0.,12.0,0.,12.0
1979-02-28 21:36:16.550 ,4,1,0.,12.0,0.,12.0,0.,12.0,0.,12.0
1979-02-28 21:36:28.550 ,4,1,0.,12.0,0.,12.0,0.,12.0,0.,12.0
1979-02-28 21:36:40.550 ,3,1,0.,12.0,0.,12.0,0.,12.0,0.,12.0
1979-02-28 21:36:52.550 ,3,1,0.,12.0,0.,12.0,0.,12.0,0.,12.0
1979-02-28 21:37:04.550 ,2,1,0.,12.0,0.,12.0,0.,12.0,0.,12.0
1979-02-28 21:37:16.550 ,2,1,0.,12.0,0.,12.0,0.,12.0,0.,12.0
1979-02-28 21:37:28.550 ,1,1,0.,12.0,0.,12.0,0.,12.0,0.,12.0
1979-02-28 21:37:40.550 ,1,1,0.,12.0,0.,12.0,0.,12.0,0.,12.0
1979-02-28 21:37:52.550 ,0,1,0.,12.0,0.,12.0,0.,12.0,0.,12.0
1979-02-28 21:38:04.550 ,0,1,0.,12.0,0.,12.0,0.,12.0,0.,12.0
1979-02-28 21:38:16.550 ,0,1,0.,12.0,0.,12.0,0.,12.0,0.,12.0
1979-02-28 21:38:28.550 ,0,1,0.,12.0,0.,12.0,0.,12.0,0.,12.0
1979-02-28 21:38:40.550 ,1,1,0.,12.0,0.,12.0,0.,12.0,0.,12.0
1979-02-28 21:38:52.550 ,1,1,0.,12.0,0.,12.0,0.,12.0,0.,12.0
1979-02-28 21:39:04.550 ,2,1,0.,12.0,0.,12.0,0.,12.0,0.,12.0
1979-02-28 21:39:16.550 ,2,1,0.,12.0,0.,12.0,0.,12.0,0.,12.0
1979-02-28 21:39:28.550 ,3,1,0.,12.0,0.,12.0,0.,12.0,0.,12.0
1979-02-28 21:39:40.550 ,3,1,0.,12.0,0.,12.0,0.,12.0,0.,12.0
1979-02-28 21:39:52.550 ,4,1,0.,12.0,0.,12.0,0.,12.0,0.,12.0
1979-02-28 21:40:04.550 ,4,1,0.,12.0,0.,12.0,0.,12.0,0.,12.0
1979-02-28 21:40:16.550 ,5,1,0.,12.0,0.,12.0,0.,12.0,0.,12.0
1979-02-28 21:40:28.550 ,5,1,0.,12.0,0.,12.0,0.,12.0,0.,12.0
1979-02-28 21:40:40.550 ,6,1,0.,12.0,0.,12.0,0.,12.0,0.,12.0
1979-02-28 21:40:52.550 ,6,1,1.,12.0,0.,12.0,0.,12.0,0.,12.0
1979-02-28 21:41:04.550 ,7,1,0.,12.0,0.,12.0,0.,12.0,0.,12.0
1979-02-28 21:41:16.550 ,7,1,0.,12.0,0.,12.0,0.,12.0,0.,12.0
1979-02-28 21:41:28.550 ,7,1,0.,12.0,0.,12.0,0.,12.0,0.,12.0
1979-02-28 21:41:40.550 ,7,1,0.,12.0,0.,12.0,0.,12.0,0.,12.0
1979-02-28 21:41:52.550 ,6,1,0.,12.0,0.,12.0,0.,12.0,0.,12.0
1979-02-28 21:42:04.550 ,6,1,0.,12.0,0.,12.0,0.,12.0,0.,12.0
1979-02-28 21:42:16.550 ,5,1,0.,12.0,0.,12.0,0.,12.0,0.,12.0
1979-02-28 21:42:28.550 ,5,1,0.,12.0,0.,12.0,0.,12.0,0.,12.0
1979-02-28 21:42:40.550 ,4,1,0.,12.0,0.,12.0,0.,12.0,0.,12.0
1979-02-28 21:42:52.550 ,4,1,0.,12.0,0.,12.0,0.,12.0,0.,12.0
1979-02-28 21:43:04.550 ,3,1,0.,12.0,0.,12.0,0.,12.0,0.,12.0
1979-02-28 21:43:16.550 ,3,1,0.,12.0,0.,12.0,0.,12.0,0.,12.0
1979-02-28 21:43:28.550 ,2,1,0.,12.0,0.,12.0,0.,12.0,0.,12.0
1979-02-28 21:43:40.550 ,2,1,0.,12.0,0.,12.0,0.,12.0,0.,12.0
1979-02-28 21:43:52.550 ,1,1,0.,12.0,0.,12.0,0.,12.0,0.,12.0
1979-02-28 21:44:04.550 ,1,1,0.,12.0,0.,12.0,0.,12.0,0.,12.0
1979-02-28 21:44:16.550 ,0,1,0.,12.0,0.,12.0,0.,12.0,0.,12.0
1979-02-28 21:44:28.550 ,0,1,0.,12.0,0.,12.0,0.,12.0,0.,12.0
1979-02-28 21:44:40.550 ,0,1,0.,12.0,0.,12.0,0.,12.0,0.,12.0
1979-02-28 21:44:52.550 ,0,1,0.,12.0,0.,12.0,0.,12.0,0.,12.0
1979-02-28 21:45:04.550 ,1,1,0.,12.0,0.,12.0,0.,12.0,0.,12.0
1979-02-28 21:45:16.550 ,1,1,0.,12.0,0.,12.0,0.,12.0,0.,12.0
1979-02-28 21:45:28.550 ,2,1,0.,12.0,0.,12.0,0.,12.0,0.,12.0
1979-02-28 21:45:40.550 ,2,1,0.,12.0,0.,12.0,0.,12.0,0.,12.0
1979-02-28 21:45:52.550 ,3,1,0.,12.0,0.,12.0,0.,12.0,0.,12.0
1979-02-28 21:46:04.550 ,3,1,0.,12.0,0.,12.0,0.,12.0,0.,12.0
1979-02-28 21:46:16.550 ,4,1,0.,12.0,0.,12.0,0.,12.0,0.,12.0
1979-02-28 21:46:28.550 ,4,1,0.,12.0,0.,12.0,0.,12.0,0.,12.0
1979-02-28 21:46:40.550 ,5,1,0.,12.0,0.,12.0,0.,12.0,0.,12.0
1979-02-28 21:46:52.550 ,5,1,0.,12.0,0.,12.0,0.,12.0,0.,12.0
1979-02-28 21:47:04.550 ,6,1,0.,12.0,0.,12.0,0.,12.0,0.,12.0
1979-02-28 21:47:16.550 ,6,1,0.,12.0,0.,12.0,0.,12.0,0.,12.0
1979-02-28 21:47:28.550 ,7,1,0.,12.0,0.,12.0,0.,12.0,0.,12.0
1979-02-28 21:47:40.550 ,7,1,0.,12.0,0.,12.0,0.,12.0,0.,12.0
1979-02-28 21:47:52.550 ,7,1,0.,12.0,0.,12.0,0.,12.0,0.,12.0
1979-02-28 21:48:04.550 ,7,1,0.,12.0,0.,12.0,0.,12.0,0.,12.0
1979-02-28 21:48:16.550 ,6,1,0.,12.0,0.,12.0,0.,12.0,0.,12.0
1979-02-28 21:48:28.550 ,6,1,0.,12.0,0.,12.0,0.,12.0,0.,12.0
1979-02-28 21:48:40.550 ,5,1,0.,12.0,0.,12.0,0.,12.0,0.,12.0
1979-02-28 21:48:52.550 ,5,1,0.,12.0,0.,12.0,0.,12.0,0.,12.0
1979-02-28 21:49:04.550 ,4,1,0.,12.0,0.,12.0,0.,12.0,0.,12.0
1979-02-28 21:49:16.550 ,4,1,0.,12.0,0.,12.0,0.,12.0,0.,12.0
1979-02-28 21:49:28.550 ,3,1,0.,12.0,0.,12.0,0.,12.0,0.,12.0
1979-02-28 21:49:40.550 ,3,1,0.,12.0,0.,12.0,0.,12.0,0.,12.0
1979-02-28 21:49:52.550 ,2,1,0.,12.0,0.,12.0,0.,12.0,0.,12.0
1979-02-28 21:50:04.550 ,2,1,0.,12.0,0.,12.0,0.,12.0,0.,12.0
1979-02-28 21:50:16.550 ,1,1,0.,12.0,0.,12.0,0.,12.0,0.,12.0
1979-02-28 21:50:28.550 ,1,1,0.,12.0,0.,12.0,0.,12.0,0.,12.0
1979-02-28 21:50:40.550 ,0,1,0.,12.0,0.,12.0,0.,12.0,0.,12.0
1979-02-28 21:50:52.550 ,0,1,0.,12.0,0.,12.0,0.,12.0,0.,12.0
1979-02-28 21:51:04.550 ,0,1,0.,12.0,0.,12.0,0.,12.0,0.,12.0
1979-02-28 21:51:16.550 ,0,1,0.,12.0,0.,12.0,0.,12.0,0.,12.0
1979-02-28 21:51:28.550 ,1,1,0.,12.0,0.,12.0,0.,12.0,0.,12.0
1979-02-28 21:51:40.550 ,1,1,0.,12.0,0.,12.0,0.,12.0,0.,12.0
1979-02-28 21:51:52.550 ,2,1,0.,12.0,0.,12.0,0.,12.0,0.,12.0
1979-02-28 21:52:04.550 ,2,1,0.,12.0,0.,12.0,0.,12.0,0.,12.0
1979-02-28 21:52:16.550 ,3,1,0.,12.0,0.,12.0,0.,12.0,0.,12.0
1979-02-28 21:52:28.550 ,3,1,0.,12.0,0.,12.0,0.,12.0,0.,12.0
1979-02-28 21:52:40.550 ,4,1,0.,12.0,0.,12.0,0.,12.0,0.,12.0
1979-02-28 21:52:52.550 ,4,1,0.,12.0,0.,12.0,0.,12.0,0.,12.0
1979-02-28 21:53:04.550 ,5,1,0.,12.0,0.,12.0,0.,12.0,0.,12.0
1979-02-28 21:53:16.550 ,5,1,0.,12.0,0.,12.0,0.,12.0,0.,12.0
1979-02-28 21:53:28.550 ,6,1,0.,12.0,0.,12.0,0.,12.0,0.,12.0
1979-02-28 21:53:40.550 ,6,1,0.,12.0,0.,12.0,0.,12.0,0.,12.0
1979-02-28 21:53:52.550 ,7,1,0.,12.0,0.,12.0,0.,12.0,0.,12.0
1979-02-28 21:54:04.550 ,7,1,0.,12.0,0.,12.0,0.,12.0,0.,12.0
1979-02-28 21:54:16.550 ,7,1,0.,12.0,0.,12.0,0.,12.0,0.,12.0
1979-02-28 21:54:28.550 ,7,1,0.,12.0,0.,12.0,0.,12.0,0.,12.0
1979-02-28 21:54:40.550 ,6,1,0.,12.0,0.,12.0,0.,12.0,0.,12.0
1979-02-28 21:54:52.550 ,6,1,0.,12.0,0.,12.0,0.,12.0,0.,12.0
1979-02-28 21:55:04.550 ,5,1,0.,12.0,0.,12.0,0.,12.0,0.,12.0
1979-02-28 21:55:16.550 ,5,1,0.,12.0,0.,12.0,0.,12.0,0.,12.0
1979-02-28 21:55:28.550 ,4,1,0.,12.0,0.,12.0,0.,12.0,0.,12.0
1979-02-28 21:55:40.550 ,4,1,0.,12.0,0.,12.0,0.,12.0,0.,12.0
1979-02-28 21:55:52.550 ,3,1,0.,12.0,0.,12.0,0.,12.0,0.,12.0
1979-02-28 21:56:04.550 ,3,1,0.,12.0,0.,12.0,0.,12.0,0.,12.0
1979-02-28 21:56:16.550 ,2,1,0.,12.0,0.,12.0,0.,12.0,0.,12.0
1979-02-28 21:56:28.550 ,2,1,0.,12.0,0.,12.0,0.,12.0,0.,12.0
1979-02-28 21:56:40.550 ,1,1,0.,12.0,0.,12.0,0.,12.0,0.,12.0
1979-02-28 21:56:52.550 ,1,1,0.,12.0,0.,12.0,0.,12.0,0.,12.0
1979-02-28 21:57:04.550 ,0,1,0.,12.0,0.,12.0,0.,12.0,0.,12.0
1979-02-28 21:57:16.550 ,0,1,0.,12.0,0.,12.0,0.,12.0,0.,12.0
1979-02-28 21:57:28.550 ,0,1,0.,12.0,0.,12.0,0.,12.0,0.,12.0
1979-02-28 21:57:40.550 ,0,1,0.,12.0,0.,12.0,0.,12.0,0.,12.0
1979-02-28 21:57:52.550 ,1,1,0.,12.0,0.,12.0,0.,12.0,0.,12.0
1979-02-28 21:58:04.550 ,1,1,0.,12.0,0.,12.0,0.,12.0,0.,12.0
1979-02-28 21:58:16.550 ,2,1,0.,12.0,0.,12.0,0.,12.0,0.,12.0
1979-02-28 21:58:28.550 ,2,1,0.,12.0,0.,12.0,0.,12.0,0.,12.0
1979-02-28 21:58:40.550 ,3,1,0.,12.0,0.,12.0,0.,12.0,0.,12.0
1979-02-28 21:58:52.550 ,3,1,0.,12.0,0.,12.0,0.,12.0,0.,12.0
1979-02-28 21:59:04.550 ,4,1,0.,12.0,0.,12.0,0.,12.0,0.,12.0
1979-02-28 21:59:16.550 ,4,1,0.,12.0,0.,12.0,0.,12.0,0.,12.0
1979-02-28 21:59:28.550 ,5,1,0.,12.0,0.,12.0,0.,12.0,0.,12.0
1979-02-28 21:59:40.550 ,5,1,0.,12.0,0.,12.0,0.,12.0,0.,12.0
1979-02-28 21:59:52.550 ,6,1,0.,12.0,0.,12.0,0.,12.0,0.,12.0
1979-02-28 22:00:04.550 ,6,1,0.,12.0,0.,12.0,0.,12.0,0.,12.0
1979-02-28 22:00:16.550 ,7,1,0.,12.0,0.,12.0,0.,12.0,0.,12.0
1979-02-28 22:00:28.550 ,7,1,0.,12.0,0.,12.0,0.,12.0,0.,12.0
1979-02-28 22:00:40.550 ,7,1,0.,12.0,0.,12.0,0.,12.0,0.,12.0
1979-02-28 22:00:52.550 ,7,1,0.,12.0,0.,12.0,0.,12.0,0.,12.0
1979-02-28 22:01:04.550 ,6,1,0.,12.0,0.,12.0,0.,12.0,0.,12.0
1979-02-28 22:01:16.550 ,6,1,0.,12.0,0.,12.0,0.,12.0,0.,12.0
1979-02-28 22:01:28.550 ,5,1,0.,12.0,0.,12.0,0.,12.0,0.,12.0
1979-02-28 22:01:40.550 ,5,1,0.,12.0,0.,12.0,0.,12.0,0.,12.0
1979-02-28 22:01:52.550 ,4,1,0.,12.0,0.,12.0,0.,12.0,0.,12.0
1979-02-28 22:02:04.550 ,4,1,0.,12.0,0.,12.0,0.,12.0,0.,12.0
1979-02-28 22:02:16.550 ,3,1,0.,12.0,0.,12.0,0.,12.0,0.,12.0
1979-02-28 22:02:28.550 ,3,1,0.,12.0,0.,12.0,0.,12.0,0.,12.0
1979-02-28 22:02:40.550 ,2,1,1.,12.0,0.,12.0,0.,12.0,0.,12.0
1979-02-28 22:02:52.550 ,2,1,0.,12.0,0.,12.0,0.,12.0,0.,12.0
1979-02-28 22:03:04.550 ,1,1,0.,12.0,0.,12.0,0.,12.0,0.,12.0
1979-02-28 22:03:16.550 ,1,1,0.,12.0,0.,12.0,0.,12.0,0.,12.0
1979-02-28 22:03:28.550 ,0,1,0.,12.0,0.,12.0,0.,12.0,0.,12.0
1979-02-28 22:03:40.550 ,0,1,0.,12.0,0.,12.0,0.,12.0,0.,12.0
1979-02-28 22:03:52.550 ,0,1,0.,12.0,0.,12.0,0.,12.0,0.,12.0
1979-02-28 22:04:04.550 ,0,1,0.,12.0,0.,12.0,0.,12.0,0.,12.0
1979-02-28 22:04:16.550 ,1,1,0.,12.0,0.,12.0,0.,12.0,0.,12.0
1979-02-28 22:04:28.550 ,1,1,0.,12.0,0.,12.0,0.,12.0,0.,12.0
1979-02-28 22:04:40.550 ,2,1,0.,12.0,0.,12.0,0.,12.0,0.,12.0
1979-02-28 22:04:52.550 ,2,1,0.,12.0,0.,12.0,0.,12.0,0.,12.0
1979-02-28 22:05:04.550 ,3,1,0.,12.0,0.,12.0,0.,12.0,0.,12.0
1979-02-28 22:05:16.550 ,3,1,0.,12.0,0.,12.0,0.,12.0,0.,12.0
1979-02-28 22:05:28.550 ,4,1,0.,12.0,0.,12.0,0.,12.0,0.,12.0
1979-02-28 22:05:40.550 ,4,1,0.,12.0,0.,12.0,0.,12.0,0.,12.0
1979-02-28 22:05:52.550 ,5,1,0.,12.0,0.,12.0,0.,12.0,0.,12.0
1979-02-28 22:06:04.550 ,5,1,0.,12.0,0.,12.0,0.,12.0,0.,12.0
1979-02-28 22:06:16.550 ,6,1,0.,12.0,0.,12.0,0.,12.0,0.,12.0
1979-02-28 22:06:28.550 ,6,1,0.,12.0,0.,12.0,0.,12.0,0.,12.0
1979-02-28 22:06:40.550 ,7,1,0.,12.0,0.,12.0,0.,12.0,0.,12.0
1979-02-28 22:06:52.550 ,7,1,0.,12.0,0.,12.0,0.,12.0,0.,12.0
1979-02-28 22:07:04.550 ,7,1,0.,12.0,0.,12.0,0.,12.0,0.,12.0
1979-02-28 22:07:16.550 ,7,1,0.,12.0,0.,12.0,0.,12.0,0.,12.0
1979-02-28 22:07:28.550 ,6,1,0.,12.0,0.,12.0,0.,12.0,0.,12.0
1979-02-28 22:07:40.550 ,6,1,0.,12.0,0.,12.0,0.,12.0,0.,12.0
1979-02-28 22:07:52.550 ,5,1,0.,12.0,0.,12.0,0.,12.0,0.,12.0
1979-02-28 22:08:04.550 ,5,1,0.,12.0,0.,12.0,0.,12.0,0.,12.0
1979-02-28 22:08:16.550 ,4,1,0.,12.0,0.,12.0,0.,12.0,0.,12.0
1979-02-28 22:08:28.550 ,4,1,0.,12.0,0.,12.0,0.,12.0,0.,12.0
1979-02-28 22:08:40.550 ,3,1,0.,12.0,0.,12.0,0.,12.0,0.,12.0
1979-02-28 22:08:52.550 ,3,1,0.,12.0,0.,12.0,0.,12.0,0.,12.0
1979-02-28 22:09:04.550 ,2,1,0.,12.0,0.,12.0,0.,12.0,0.,12.0
1979-02-28 22:09:16.550 ,2,1,0.,12.0,0.,12.0,0.,12.0,0.,12.0
1979-02-28 22:09:28.550 ,1,1,0.,12.0,0.,12.0,0.,12.0,0.,12.0
1979-02-28 22:09:40.550 ,1,1,0.,12.0,0.,12.0,0.,12.0,0.,12.0
1979-02-28 22:09:52.550 ,0,1,0.,12.0,0.,12.0,0.,12.0,0.,12.0
1979-02-28 22:10:04.550 ,0,1,0.,12.0,0.,12.0,0.,12.0,0.,12.0
1979-02-28 22:10:16.550 ,0,1,0.,12.0,0.,12.0,0.,12.0,0.,12.0
1979-02-28 22:10:28.550 ,0,1,0.,12.0,0.,12.0,0.,12.0,0.,12.0
1979-02-28 22:10:40.550 ,1,1,0.,12.0,0.,12.0,0.,12.0,0.,12.0
1979-02-28 22:10:52.550 ,1,1,0.,12.0,0.,12.0,0.,12.0,0.,12.0
1979-02-28 22:11:04.550 ,2,1,0.,12.0,0.,12.0,0.,12.0,0.,12.0
1979-02-28 22:11:16.550 ,2,1,0.,12.0,0.,12.0,0.,12.0,0.,12.0
1979-02-28 22:11:28.550 ,3,1,0.,12.0,0.,12.0,0.,12.0,0.,12.0
1979-02-28 22:11:40.550 ,3,1,0.,12.0,0.,12.0,0.,12.0,0.,12.0
1979-02-28 22:11:52.550 ,4,1,0.,12.0,0.,12.0,0.,12.0,0.,12.0
1979-02-28 22:12:04.550 ,4,1,0.,12.0,0.,12.0,0.,12.0,0.,12.0
1979-02-28 22:12:16.550 ,5,1,0.,12.0,0.,12.0,0.,12.0,0.,12.0
1979-02-28 22:12:28.550 ,5,1,0.,12.0,0.,12.0,0.,12.0,0.,12.0
1979-02-28 22:12:40.550 ,6,1,0.,12.0,0.,12.0,0.,12.0,0.,12.0
1979-02-28 22:12:52.550 ,6,1,0.,12.0,0.,12.0,0.,12.0,0.,12.0
1979-02-28 22:13:04.550 ,7,1,0.,12.0,0.,12.0,0.,12.0,0.,12.0
1979-02-28 22:13:16.550 ,7,1,0.,12.0,0.,12.0,0.,12.0,0.,12.0
1979-02-28 22:13:28.550 ,7,1,0.,12.0,0.,12.0,0.,12.0,0.,12.0
1979-02-28 22:13:40.550 ,7,1,0.,12.0,0.,12.0,0.,12.0,0.,12.0
1979-02-28 22:13:52.550 ,6,1,0.,12.0,0.,12.0,0.,12.0,0.,12.0
1979-02-28 22:14:04.550 ,6,1,0.,12.0,0.,12.0,0.,12.0,0.,12.0
1979-02-28 22:14:16.550 ,5,1,0.,12.0,0.,12.0,0.,12.0,0.,12.0
1979-02-28 22:14:28.550 ,5,1,0.,12.0,0.,12.0,0.,12.0,0.,12.0
1979-02-28 22:14:40.550 ,4,1,0.,12.0,0.,12.0,0.,12.0,0.,12.0
1979-02-28 22:14:52.550 ,4,1,0.,12.0,0.,12.0,0.,12.0,0.,12.0
1979-02-28 22:15:04.550 ,3,1,0.,12.0,0.,12.0,0.,12.0,0.,12.0
1979-02-28 22:15:16.550 ,3,1,0.,12.0,0.,12.0,0.,12.0,0.,12.0
1979-02-28 22:15:28.550 ,2,1,0.,12.0,0.,12.0,0.,12.0,0.,12.0
1979-02-28 22:15:40.550 ,2,1,0.,12.0,0.,12.0,0.,12.0,0.,12.0
1979-02-28 22:15:52.550 ,1,1,0.,12.0,0.,12.0,0.,12.0,0.,12.0
1979-02-28 22:16:04.550 ,1,1,0.,12.0,0.,12.0,0.,12.0,0.,12.0
1979-02-28 22:16:16.550 ,0,1,0.,12.0,0.,12.0,0.,12.0,0.,12.0
1979-02-28 22:16:28.550 ,0,1,0.,12.0,0.,12.0,0.,12.0,0.,12.0
1979-02-28 22:16:40.550 ,0,1,0.,12.0,0.,12.0,0.,12.0,0.,12.0
1979-02-28 22:16:52.550 ,0,1,0.,12.0,0.,12.0,0.,12.0,0.,12.0
1979-02-28 22:17:04.550 ,1,1,0.,12.0,0.,12.0,0.,12.0,0.,12.0
1979-02-28 22:17:16.550 ,1,1,0.,12.0,0.,12.0,0.,12.0,0.,12.0